Wind_Speed
29 30 29 30 31 32 33 33 33 32 32 33 33 33 31 31 31 32 32 32 32 31 31 31 32 32 32 32 32 32 32 33 33 34 35 36 36 37 37 37 38 38 38 39
31 30 30 31 32 33 34 34 34 33 33 34 34 33 31 30 31 32 32 32 32 32 32 32 32 32 33 33 32 32 32 33 33 34 35 35 36 36 36 37 37 38 38 39
32 31 32 33 33 33 34 34 35 34 34 35 35 34 31 31 31 31 31 31 31 32 32 32 32 32 33 33 33 33 33 33 34 34 34 35 36 36 36 36 37 37 37 38
32 31 32 33 33 33 34 34 34 35 34 34 34 34 30 29 29 30 30 30 30 31 31 32 32 33 33 34 34 34 35 34 34 34 34 35 36 36 36 36 37 37 37 37
32 32 33 33 33 33 33 33 34 34 34 35 33 34 30 29 29 29 30 30 30 30 31 32 32 33 33 34 35 35 35 35 35 35 35 35 36 36 36 37 37 37 38 38
33 33 33 33 32 33 33 33 34 35 35 36 33 34 32 30 29 29 29 30 30 31 31 31 32 32 33 33 34 35 36 36 36 35 36 36 36 36 37 38 38 38 39 38
33 33 33 32 32 33 32 32 33 34 35 35 33 35 33 30 28 29 29 29 30 31 31 31 31 32 32 32 33 34 34 35 35 35 36 37 37 37 38 38 38 38 38 38
35 33 32 32 31 32 32 32 32 34 35 35 34 34 32 30 29 29 29 29 29 30 31 31 31 31 32 32 32 33 33 34 34 35 36 37 37 37 38 39 39 39 39 39
34 34 32 31 31 31 31 31 31 33 35 35 34 34 32 30 29 29 29 29 29 30 30 31 30 30 31 31 31 32 32 33 35 36 36 36 37 38 38 39 39 39 40 40
33 33 32 31 31 31 31 31 31 32 34 35 35 33 32 30 29 29 29 29 29 30 30 30 30 30 31 30 31 32 32 32 33 35 35 36 36 37 37 38 39 40 40 40
32 32 32 32 32 31 30 31 32 33 33 35 35 33 31 30 30 29 29 29 30 30 30 30 30 31 31 30 31 31 32 32 33 34 35 36 36 36 37 38 38 39 40 41
30 31 32 31 31 31 31 32 32 33 34 35 36 35 32 31 30 30 30 30 30 30 30 30 30 30 31 30 30 31 32 32 32 33 34 35 35 35 36 37 37 38 39 40
30 31 32 31 31 31 32 31 32 33 35 35 36 34 33 32 31 30 29 29 29 29 29 29 29 30 31 30 30 31 31 32 32 32 32 34 34 35 35 36 37 38 38 39
31 31 31 32 32 32 32 32 33 34 35 35 34 33 32 32 31 30 30 29 29 29 29 29 29 30 30 30 29 30 29 30 30 30 31 32 33 34 35 36 37 38 38 38
30 31 30 30 31 32 33 33 34 35 35 36 34 33 31 32 32 31 30 29 28 29 29 30 30 30 30 30 29 28 29 30 30 31 31 32 33 34 36 36 37 38 38 38
31 31 30 30 30 32 33 33 33 35 36 36 34 33 32 32 32 32 30 29 29 28 28 29 30 30 30 30 30 30 30 30 31 31 31 32 33 34 35 36 36 37 38 38
31 32 32 31 31 32 34 32 32 33 33 34 33 32 32 32 32 31 31 30 29 29 29 29 29 29 29 30 30 30 30 30 30 30 30 31 32 32 33 34 35 36 37 37
30 30 31 31 30 31 29 29 30 31 31 32 32 31 32 31 31 32 31 30 30 29 29 30 30 30 29 30 30 30 30 30 30 30 31 31 31 31 32 33 34 34 35 35
30 30 30 29 29 29 27 27 28 29 29 30 30 29 30 30 30 30 30 30 30 29 29 30 30 30 30 29 29 29 30 29 29 30 30 30 31 31 32 32 32 33 33 33
29 30 31 31 30 29 27 26 26 27 27 27 28 28 28 28 29 28 29 29 29 28 28 29 29 30 30 29 29 29 29 29 29 29 30 30 31 31 31 31 30 31 31 32
28 29 31 31 31 29 27 26 26 26 26 25 26 26 27 27 27 27 27 27 27 27 27 28 29 29 29 29 28 28 28 28 29 30 30 30 30 30 30 29 29 29 30 30
27 28 28 29 30 28 27 27 27 26 25 26 26 25 25 25 26 26 26 26 26 27 27 28 29 29 28 28 28 28 28 29 29 29 30 29 29 29 29 29 29 29 30 30
25 25 25 26 26 25 26 27 26 26 26 26 27 26 26 26 26 26 26 26 26 27 27 27 27 28 28 28 28 28 29 28 28 28 28 28 28 28 28 28 29 30 30 30
22 23 23 23 22 23 23 24 25 25 26 26 27 27 27 27 27 27 27 27 26 26 26 27 27 27 27 28 28 28 27 27 28 28 28 28 27 27 28 28 29 29 29 28
22 23 23 24 23 23 23 24 24 24 25 26 26 26 26 27 27 26 26 27 27 26 26 26 27 27 27 27 27 27 27 27 27 27 27 27 27 27 28 28 28 28 28 28
21 22 23 23 23 25 23 23 24 24 24 25 25 24 24 25 25 25 25 26 26 26 26 26 26 27 27 26 27 27 27 27 26 26 26 26 27 27 28 28 28 28 27 27
Wind_Direction
272 270 269 269 269 270 270 270 270 270 268 268 268 267 266 265 263 262 261 260 260 260 260 260 261 262 263 263 262 261 260 259 259 258 258 258 258 259 258 259 260 261 261 262
272 271 270 269 269 269 270 270 270 269 269 269 268 267 266 264 263 262 262 260 259 259 260 261 261 262 262 262 262 261 260 259 259 259 259 258 257 258 259 259 260 261 261 261
273 272 269 269 268 269 269 270 270 270 269 269 269 267 265 263 263 262 262 262 261 261 261 262 263 263 263 263 263 262 261 260 261 261 260 259 258 258 259 259 260 260 261 262
273 271 270 269 269 269 269 270 269 269 269 269 269 269 264 263 261 261 262 262 262 262 261 262 264 264 264 264 264 263 262 262 261 261 261 260 259 259 259 260 260 260 262 263
275 273 271 270 269 269 269 269 269 269 269 269 268 269 266 263 260 260 261 262 263 264 264 264 264 266 266 266 265 263 263 262 261 261 261 261 260 260 260 260 260 262 262 263
275 273 271 270 268 268 269 269 268 267 267 267 267 267 266 264 262 261 262 263 264 265 266 266 266 267 267 267 266 265 264 263 261 261 261 262 261 261 261 261 261 262 263 264
274 272 271 269 268 267 267 268 268 268 268 268 267 266 267 266 264 263 263 264 265 265 266 267 268 268 268 267 266 265 265 263 262 262 262 262 262 262 262 262 263 263 263 264
275 272 271 270 269 269 268 267 266 268 269 269 267 266 266 267 265 265 265 266 267 267 266 267 267 268 268 268 267 267 266 264 263 263 264 263 263 263 263 263 264 264 264 264
275 273 271 269 269 268 267 265 265 266 268 269 267 266 265 265 265 265 264 266 268 268 269 268 267 268 269 268 267 268 266 265 264 264 264 264 265 265 265 264 264 264 264 265
272 272 269 268 268 266 266 266 265 266 268 269 268 268 268 266 265 264 264 266 268 269 269 267 267 268 269 267 268 269 267 266 266 266 265 265 266 266 266 267 266 264 264 266
270 271 270 266 266 266 264 264 265 265 266 268 269 267 269 269 267 267 267 267 269 271 270 268 268 268 268 268 268 269 268 266 265 265 266 266 267 266 267 269 268 267 266 267
268 269 269 267 266 264 264 263 263 265 265 267 269 269 268 268 267 267 267 267 268 270 269 268 268 268 268 269 269 270 269 266 265 266 266 267 268 268 269 269 268 268 270 270
268 267 267 267 265 264 262 262 263 265 265 266 267 269 268 268 268 266 266 267 268 270 269 269 268 268 269 270 270 270 269 267 267 267 268 268 268 267 268 269 268 269 270 271
267 266 267 269 270 268 266 264 264 265 265 266 268 268 267 267 266 264 264 265 266 268 268 268 268 268 269 270 269 269 268 268 268 269 270 269 269 268 267 268 269 270 272 273
265 264 265 268 270 269 267 265 265 265 266 267 268 267 265 264 263 263 263 264 266 268 267 267 268 269 270 269 268 267 269 269 270 271 271 270 271 270 269 270 270 272 273 274
265 263 265 268 269 268 266 267 267 265 265 266 266 265 264 263 262 262 263 265 266 268 268 268 268 270 271 271 269 267 269 270 271 272 272 273 272 272 271 272 272 274 275 275
266 266 267 270 270 268 266 268 266 264 265 265 265 265 263 261 259 260 262 263 265 266 267 269 269 270 270 270 269 269 270 271 272 273 273 273 274 273 273 274 274 276 276 276
266 265 267 270 270 269 270 269 266 264 262 262 262 263 261 260 260 259 260 262 264 265 267 269 269 269 269 270 270 271 272 273 274 276 276 275 275 275 275 276 277 278 279 278
267 264 265 268 270 270 269 270 270 267 264 261 261 261 262 261 260 260 260 262 264 266 268 268 268 268 269 271 271 271 273 274 276 278 276 275 276 276 277 277 278 279 281 281
266 265 264 266 269 270 270 270 271 268 264 261 260 260 258 258 258 259 260 262 264 266 267 268 268 268 269 271 272 272 273 274 275 277 277 276 277 277 278 279 279 281 281 281
267 266 264 265 267 268 269 269 269 267 264 260 259 259 257 257 258 258 259 261 263 265 266 266 267 268 269 270 272 273 274 274 275 276 278 278 278 279 280 280 281 282 282 282
270 268 267 265 265 266 266 266 265 265 263 259 258 257 256 256 256 257 259 261 262 263 264 265 266 267 268 269 271 273 273 274 274 275 277 277 277 278 278 280 281 282 282 283
269 268 266 264 264 265 263 263 264 264 263 260 259 257 257 257 257 259 261 265 266 265 265 265 266 266 267 267 270 273 274 274 274 275 276 276 277 278 279 280 282 283 283 283
266 264 262 262 262 263 263 263 262 262 264 262 260 259 257 259 260 261 263 266 267 267 266 266 266 267 268 268 269 272 273 274 274 275 276 277 277 278 279 281 282 283 283 283
268 264 262 264 264 263 263 263 263 263 264 264 262 260 259 260 262 264 264 265 266 268 267 267 267 267 269 268 268 269 270 272 273 275 276 276 277 279 280 282 284 285 284 283
270 267 265 265 265 265 263 263 262 262 265 264 261 259 260 261 261 263 264 264 266 265 266 267 267 266 266 267 266 267 269 271 273 274 274 275 277 280 282 283 283 284 283 282
Height
5721 5721 5721 5721 5720 5719 5718 5717 5717 5717 5716 5715 5715 5715 5716 5716 5715 5716 5716 5716 5717 5718 5718 5719 5719 5720 5720 5720 5720 5721 5721 5722 5722 5723 5724 5725 5726 5727 5728 5729 5730 5731 5731 5732
5713 5713 5713 5712 5710 5710 5709 5708 5708 5708 5707 5706 5705 5706 5707 5707 5706 5707 5707 5708 5708 5709 5709 5710 5710 5710 5711 5711 5711 5712 5712 5713 5713 5714 5714 5715 5717 5718 5719 5720 5721 5721 5722 5723
5704 5705 5703 5702 5701 5700 5700 5699 5699 5698 5698 5696 5695 5697 5698 5698 5697 5698 5698 5699 5699 5700 5700 5701 5701 5701 5701 5702 5702 5703 5703 5703 5704 5704 5705 5706 5707 5708 5710 5711 5712 5712 5713 5714
5694 5695 5693 5692 5692 5691 5691 5690 5689 5688 5687 5687 5686 5685 5690 5690 5689 5689 5690 5690 5691 5691 5691 5691 5692 5692 5692 5692 5692 5693 5693 5694 5694 5695 5695 5696 5697 5699 5701 5702 5703 5703 5704 5705
5685 5685 5684 5683 5683 5682 5681 5681 5679 5678 5677 5677 5677 5676 5680 5680 5680 5681 5682 5682 5682 5682 5682 5683 5683 5683 5683 5683 5683 5683 5683 5684 5684 5685 5686 5687 5688 5689 5691 5692 5693 5694 5695 5696
5676 5674 5673 5673 5673 5672 5671 5671 5670 5669 5668 5668 5670 5668 5669 5671 5672 5673 5673 5673 5673 5674 5673 5673 5674 5673 5673 5673 5673 5673 5673 5674 5675 5676 5676 5677 5679 5680 5681 5682 5683 5684 5685 5686
5666 5665 5664 5663 5663 5663 5662 5662 5661 5659 5658 5659 5660 5658 5661 5663 5664 5664 5665 5665 5665 5665 5664 5664 5664 5664 5664 5663 5663 5663 5663 5664 5665 5666 5667 5668 5669 5670 5671 5672 5674 5675 5675 5676
5655 5655 5655 5654 5654 5653 5653 5653 5653 5651 5650 5650 5651 5650 5654 5655 5655 5655 5656 5656 5656 5656 5656 5655 5655 5655 5654 5654 5653 5653 5654 5654 5655 5656 5657 5658 5659 5660 5661 5662 5663 5664 5665 5666
5644 5645 5646 5645 5645 5644 5643 5643 5644 5643 5641 5640 5641 5642 5645 5646 5647 5647 5647 5648 5648 5648 5647 5646 5646 5646 5646 5646 5645 5645 5644 5645 5645 5646 5647 5648 5649 5650 5651 5652 5653 5654 5654 5655
5633 5634 5636 5636 5635 5635 5635 5635 5634 5633 5632 5631 5632 5634 5636 5638 5639 5639 5639 5639 5639 5639 5638 5638 5637 5637 5637 5637 5636 5636 5635 5635 5636 5637 5638 5639 5640 5640 5641 5642 5642 5643 5644 5644
5624 5625 5626 5625 5625 5626 5626 5626 5625 5624 5624 5623 5623 5628 5629 5630 5630 5631 5631 5631 5630 5630 5630 5629 5629 5629 5628 5628 5627 5627 5626 5626 5627 5627 5628 5629 5630 5630 5631 5632 5632 5632 5633 5634
5614 5615 5615 5617 5617 5617 5616 5617 5616 5616 5616 5615 5615 5620 5621 5621 5621 5622 5622 5622 5622 5622 5621 5621 5621 5620 5620 5619 5618 5618 5618 5617 5618 5618 5619 5619 5620 5621 5621 5622 5622 5622 5623 5623
5605 5605 5605 5606 5609 5608 5607 5607 5607 5607 5607 5606 5606 5611 5612 5612 5612 5613 5614 5614 5613 5613 5613 5612 5612 5612 5611 5610 5610 5609 5609 5609 5609 5609 5610 5610 5610 5611 5612 5612 5612 5613 5612 5612
5595 5595 5597 5598 5598 5597 5598 5599 5599 5598 5597 5597 5598 5601 5603 5603 5603 5604 5604 5605 5605 5604 5604 5604 5604 5603 5603 5602 5602 5601 5601 5601 5601 5601 5601 5601 5601 5602 5602 5603 5603 5603 5602 5602
5585 5586 5587 5587 5588 5587 5588 5589 5589 5588 5589 5588 5590 5591 5593 5593 5593 5594 5595 5596 5596 5596 5596 5596 5596 5595 5595 5594 5594 5594 5593 5593 5593 5593 5593 5592 5592 5592 5593 5593 5593 5593 5592 5591
5576 5577 5578 5578 5578 5577 5577 5579 5580 5579 5579 5579 5580 5582 5584 5583 5584 5585 5586 5587 5587 5587 5587 5587 5587 5587 5587 5586 5586 5586 5586 5585 5585 5585 5584 5583 5583 5583 5583 5583 5583 5582 5582 5581
5568 5568 5568 5569 5569 5567 5568 5571 5570 5570 5570 5571 5571 5574 5574 5574 5575 5576 5577 5578 5578 5579 5579 5579 5579 5579 5579 5578 5578 5578 5578 5577 5577 5576 5575 5575 5574 5573 5573 5573 5573 5572 5571 5571
5559 5559 5558 5559 5559 5558 5563 5561 5561 5560 5561 5562 5562 5564 5564 5565 5566 5567 5568 5569 5570 5570 5571 5571 5571 5571 5570 5570 5570 5569 5569 5569 5568 5568 5566 5566 5565 5564 5564 5564 5563 5562 5561 5560
5550 5550 5550 5550 5549 5549 5553 5553 5552 5551 5553 5554 5554 5555 5555 5556 5557 5559 5560 5560 5561 5562 5562 5562 5562 5562 5562 5562 5562 5561 5561 5560 5560 5559 5558 5557 5556 5555 5555 5555 5554 5553 5552 5550
5542 5541 5542 5541 5540 5541 5546 5545 5543 5543 5544 5545 5545 5545 5546 5547 5549 5551 5551 5552 5552 5553 5553 5553 5553 5553 5554 5553 5553 5553 5552 5552 5552 5551 5549 5548 5547 5546 5546 5545 5545 5544 5542 5541
5534 5533 5533 5533 5532 5533 5536 5536 5535 5536 5537 5536 5536 5537 5538 5539 5541 5542 5542 5543 5543 5544 5544 5544 5544 5545 5545 5545 5545 5544 5544 5544 5543 5542 5541 5540 5539 5538 5537 5536 5536 5534 5533 5532
5525 5525 5525 5525 5525 5528 5528 5527 5527 5527 5527 5528 5528 5529 5530 5531 5532 5533 5534 5535 5535 5535 5536 5536 5536 5536 5536 5536 5536 5536 5536 5535 5535 5534 5533 5532 5530 5530 5529 5528 5527 5525 5524 5523
5517 5518 5516 5517 5519 5519 5519 5519 5518 5518 5519 5519 5520 5521 5522 5523 5525 5526 5526 5527 5527 5527 5527 5528 5528 5528 5528 5528 5528 5528 5528 5527 5526 5526 5525 5523 5522 5521 5520 5520 5519 5517 5515 5514
5509 5509 5509 5509 5511 5511 5511 5510 5511 5511 5511 5511 5512 5513 5514 5515 5517 5518 5519 5519 5519 5519 5519 5519 5520 5520 5520 5520 5520 5520 5519 5519 5518 5517 5517 5516 5515 5514 5512 5511 5510 5508 5506 5505
5502 5501 5501 5502 5504 5504 5504 5503 5503 5503 5504 5504 5505 5505 5506 5507 5508 5509 5510 5511 5511 5511 5511 5512 5512 5512 5512 5512 5512 5512 5511 5511 5510 5510 5509 5508 5507 5506 5505 5503 5501 5500 5498 5496
5496 5495 5495 5496 5496 5495 5496 5496 5496 5496 5496 5496 5497 5498 5499 5500 5501 5502 5502 5503 5503 5503 5503 5503 5503 5503 5504 5504 5504 5503 5503 5503 5502 5502 5501 5500 5499 5498 5497 5495 5493 5491 5489 5487